Temperature
18 19 19 18 22 24 24 24 24 24 25 25 24 25 26 26 25 24 22 22 22 22 22 22 21 21 21 20 20 19 19 18 18 17 17 16 17 17 17 17 17 17 17 17 17 17 17 17 17
18 19 18 20 23 24 24 24 24 25 24 23 23 24 25 25 22 22 21 22 22 22 22 21 21 21 21 21 20 19 19 18 18 17 16 16 16 16 16 16 17 17 16 16 17 17 17 17 17
18 19 19 22 23 24 24 24 24 24 23 23 24 24 24 24 22 21 22 22 22 21 21 21 21 21 21 21 20 20 19 18 18 16 16 16 16 16 16 16 16 16 16 16 17 16 17 16 17
18 19 21 23 23 23 23 24 23 24 24 23 24 25 23 22 21 21 22 22 21 21 21 21 21 21 20 20 20 20 19 19 18 17 16 16 16 16 16 16 16 16 16 16 16 16 16 16 16
18 20 22 22 22 23 23 23 22 24 25 24 24 25 24 21 22 22 22 21 21 20 21 21 21 20 20 19 19 19 19 19 18 17 16 17 17 16 16 16 16 16 16 16 16 16 16 16 16
19 21 22 22 23 23 24 22 22 24 24 23 23 24 24 21 22 22 21 21 21 20 21 21 20 20 19 19 19 19 19 18 18 17 16 17 17 16 16 16 16 16 16 16 16 16 16 16 16
20 21 22 22 22 23 23 22 23 24 24 24 23 24 24 21 21 21 21 21 21 21 21 21 20 20 19 19 18 18 18 18 18 17 17 16 16 16 15 15 15 16 16 16 16 16 16 16 16
19 21 21 21 21 22 23 22 22 22 23 21 21 24 24 21 22 21 21 21 21 21 21 21 21 20 19 18 18 18 18 18 18 18 17 17 16 16 15 14 14 15 15 16 16 16 16 16 16
18 21 21 21 21 22 22 22 22 21 22 21 21 22 22 22 21 21 20 20 20 21 21 21 20 20 19 17 17 17 17 17 17 17 17 17 16 14 14 14 15 15 15 16 16 16 16 15 15
19 21 22 21 21 22 22 21 21 22 23 23 23 22 21 21 21 19 19 19 19 19 20 20 20 19 18 17 16 16 15 15 15 14 14 14 14 14 14 14 16 16 16 16 16 16 15 15 15
19 20 21 20 20 20 20 21 21 21 23 23 23 22 20 20 20 19 18 19 19 19 20 20 19 19 18 17 16 15 14 14 14 14 14 13 13 13 13 14 15 15 16 15 15 15 15 14 14
19 20 19 20 19 19 20 20 21 21 21 21 20 19 19 19 19 18 18 18 18 19 19 19 19 19 18 17 16 15 14 14 14 14 14 13 13 13 13 13 13 14 14 14 15 15 14 14 14
19 20 19 19 18 18 18 19 20 20 20 19 19 19 18 18 18 17 17 17 17 17 18 18 18 18 18 17 16 15 14 14 14 13 13 13 13 13 13 12 13 13 13 13 14 14 14 14 14
19 19 19 19 19 18 18 20 19 21 19 19 18 18 18 18 17 17 16 17 16 16 16 17 17 17 17 17 16 15 14 14 14 13 13 13 13 12 12 12 12 12 12 12 12 13 13 13 14
18 19 20 20 19 19 18 21 21 21 19 19 19 19 17 16 16 15 16 15 15 15 15 16 16 16 16 16 16 15 15 14 14 13 13 12 12 12 12 12 12 12 12 12 13 13 13 13 13
19 19 20 20 19 18 19 21 22 20 18 18 17 17 16 15 15 15 14 14 14 14 15 15 16 15 15 15 15 14 14 14 14 13 13 12 12 12 12 12 12 12 12 12 12 13 13 13 13
20 20 20 20 19 19 19 19 21 18 17 16 16 16 15 15 14 14 14 14 13 14 14 14 15 15 15 15 15 14 13 13 13 13 12 12 12 12 12 12 12 12 12 12 12 12 12 12 13
19 19 19 19 19 18 18 19 19 16 16 15 15 14 14 14 13 13 13 13 13 13 13 13 13 14 14 14 14 14 13 12 12 11 11 11 11 11 11 11 11 11 12 12 12 12 12 12 12
18 18 18 18 18 17 18 18 18 16 14 13 13 13 12 12 12 12 12 13 13 12 12 12 12 13 13 13 13 13 12 12 11 11 10 11 11 11 11 11 11 11 11 11 11 11 11 11 12
17 18 18 18 17 16 17 17 17 15 13 12 11 11 11 11 11 11 11 12 12 12 11 11 12 12 13 13 13 12 12 11 10 10 10 10 10 11 11 10 10 10 10 10 10 10 10 10 11
17 17 17 16 16 16 15 18 16 14 12 11 10 10 10 10 10 10 10 11 12 12 11 10 11 12 12 12 12 12 11 10 10 10 10 10 10 10 10 10 10 10 10 9 9 9 9 9 10
17 16 15 15 15 17 15 18 18 14 12 11 10 10 9 9 9 9 9 10 11 11 11 10 10 11 11 11 11 11 11 10 10 9 9 9 9 9 9 9 9 9 9 9 9 9 9 9 9
15 15 14 14 14 15 15 16 18 13 11 10 10 9 9 8 8 8 7 7 8 9 9 9 9 10 10 10 10 10 10 10 9 9 9 9 9 8 8 8 8 8 8 8 8 9 9 9 8
14 15 15 13 14 15 15 15 17 10 8 9 9 9 8 8 7 7 7 7 7 7 7 7 8 9 9 9 9 9 9 9 9 8 8 8 8 8 8 8 8 8 8 8 8 8 8 8 8
14 15 16 16 16 16 14 14 14 7 8 8 8 8 8 8 7 7 7 6 6 6 6 6 6 7 8 8 8 9 9 9 8 8 8 8 8 8 8 8 8 7 7 7 7 7 7 7 7
13 13 13 13 14 15 15 14 13 8 8 8 8 8 8 7 7 6 6 6 6 5 5 5 5 6 7 7 8 8 8 8 8 8 8 8 8 7 8 7 7 7 7 7 7 7 7 7 7
13 12 12 12 13 12 14 14 10 7 9 9 9 8 7 7 6 6 6 5 5 5 5 4 4 5 6 6 7 7 8 8 8 8 8 8 8 7 7 7 7 7 6 7 7 7 7 7 7
12 12 12 12 12 13 14 14 14 9 9 10 9 8 7 6 6 5 5 5 5 4 4 3 3 3 4 5 5 6 6 6 7 7 8 8 7 7 7 6 6 6 6 6 6 6 6 6 6
11 11 11 11 11 11 11 13 10 9 10 9 8 7 6 6 5 5 5 5 4 4 3 2 2 2 2 3 4 4 4 5 6 7 7 7 7 6 6 6 5 5 5 5 5 5 4 5 5
10 10 10 10 10 10 10 11 11 10 9 8 7 7 6 5 5 5 5 5 4 3 2 1 1 0 0 1 2 3 3 4 4 5 6 6 5 5 5 5 4 4 3 3 2 2 2 2 2
Wind_Speed
2 1 3 3 4 4 4 3 2 2 2 1 1 2 2 2 3 2 3 4 2 1 7 12 13 13 13 12 12 12 11 10 9 9 8 7 7 6 7 6 7 8 8 8 7 7 8 9 9
1 2 3 4 4 5 5 2 2 1 2 1 1 1 2 1 1 1 2 3 2 3 8 9 14 14 14 14 13 13 11 10 10 9 7 5 5 7 7 7 7 7 7 7 7 7 8 8 9
1 2 3 4 4 3 3 2 2 3 4 3 2 1 2 1 2 1 2 6 3 5 7 9 12 14 14 14 14 13 12 12 10 9 8 6 6 6 6 5 5 5 5 5 6 6 8 9 9
2 2 3 4 4 2 3 2 6 6 1 2 3 2 2 1 1 2 6 5 4 5 7 8 12 13 13 13 13 12 12 12 10 10 10 7 6 4 4 3 2 4 5 5 6 7 7 8 10
1 2 4 5 5 4 5 7 6 6 2 1 3 5 3 4 1 3 6 4 4 5 5 6 9 11 11 12 12 12 12 11 10 8 9 8 7 7 6 3 1 2 5 6 6 7 8 9 11
2 2 4 5 5 5 6 4 6 7 4 2 4 5 3 4 3 1 4 3 2 3 4 4 7 9 11 12 12 12 12 12 10 9 7 8 8 8 7 5 4 3 3 5 6 8 9 9 11
3 3 4 5 6 5 2 3 5 6 6 3 2 5 2 5 4 2 2 3 3 2 2 4 6 10 12 11 12 12 12 11 11 10 9 8 7 7 6 5 5 5 3 4 6 7 8 9 10
2 3 3 4 5 3 3 4 3 6 5 2 3 5 4 3 4 3 1 1 2 2 1 3 6 8 10 11 12 11 11 11 12 11 9 6 6 7 4 6 3 3 3 4 6 8 8 8 8
2 4 5 3 4 3 3 6 6 4 6 4 5 7 4 1 4 5 5 4 3 1 0 2 4 6 9 10 9 11 11 10 10 11 10 8 10 10 9 9 2 4 5 5 6 7 8 7 8
4 5 4 2 3 6 8 10 10 7 10 11 11 10 6 5 7 8 9 8 5 3 2 3 4 5 7 7 8 8 8 8 10 9 9 10 9 8 8 5 5 8 8 8 9 8 7 9 9
4 6 4 5 7 7 9 12 8 9 14 14 15 14 6 8 9 10 9 7 4 3 2 3 3 3 6 5 5 5 5 6 7 7 7 7 7 7 7 7 7 9 10 11 9 10 11 10 8
5 8 8 7 6 7 12 11 11 13 15 15 14 12 10 10 11 10 9 6 4 3 1 2 1 0 3 5 5 5 5 5 5 6 7 7 5 6 6 5 6 6 7 7 8 8 10 10 10
8 8 7 9 10 12 12 14 13 14 12 11 10 9 10 11 10 9 8 6 5 4 2 0 1 2 3 3 4 5 5 6 6 6 7 7 6 6 5 5 5 6 6 6 7 9 10 11 9
4 8 11 12 11 5 7 9 5 7 5 8 9 11 11 10 9 9 9 9 8 6 4 2 2 3 4 3 3 3 3 4 5 6 7 8 7 6 5 5 5 5 6 6 6 8 8 8 6
5 8 10 3 2 2 7 9 4 7 10 14 15 14 12 11 9 10 10 10 9 7 5 4 3 2 3 4 3 2 3 4 4 5 7 8 8 7 7 6 6 6 6 7 5 6 5 4 4
4 5 4 1 3 3 7 11 9 14 16 16 14 13 12 12 10 9 10 10 9 8 7 6 6 7 5 4 4 3 3 3 4 5 6 8 9 8 7 7 7 7 7 6 6 6 6 6 6
4 5 7 5 2 5 7 11 15 18 13 13 16 17 18 19 20 13 9 10 10 11 10 9 8 8 6 5 5 4 4 4 4 4 5 6 8 8 6 6 6 7 7 7 7 7 7 7 7
6 8 7 10 6 8 10 13 15 15 15 17 19 20 21 22 23 21 15 10 10 11 11 11 9 8 7 6 5 5 5 5 4 4 4 5 6 6 5 4 4 4 5 5 5 6 5 5 7
6 9 13 10 5 8 12 14 9 11 16 19 20 20 21 22 23 24 21 15 10 11 12 12 11 10 8 6 7 6 6 5 5 3 3 4 4 4 4 4 3 3 3 3 4 4 5 3 3
8 12 11 7 5 9 10 9 8 13 17 17 19 20 22 23 25 25 24 21 15 13 13 14 13 12 11 8 7 6 6 5 4 4 3 3 3 3 3 4 4 3 3 3 4 5 4 3 3
9 8 10 15 16 6 6 4 12 11 16 18 19 20 22 24 24 25 25 25 21 16 13 13 14 12 12 10 7 5 5 5 6 6 5 3 4 4 4 4 4 4 5 4 4 4 5 4 3
6 6 12 16 13 6 3 5 11 7 11 19 20 21 22 23 23 24 25 27 26 21 15 13 14 13 12 10 10 10 9 9 9 7 5 5 4 4 4 4 4 5 5 5 5 4 4 4 4
7 12 14 12 9 8 5 7 6 6 9 17 19 20 21 21 21 23 24 24 24 23 18 14 13 13 12 11 11 11 11 9 7 7 6 6 5 4 4 3 4 5 5 6 5 5 5 5 5
9 13 9 4 4 5 4 5 5 5 9 15 18 20 19 19 20 21 22 22 22 23 21 17 15 14 13 12 11 11 11 10 10 9 8 7 5 5 4 3 4 4 4 5 5 6 7 6 6
11 11 7 5 4 3 0 8 2 7 9 13 15 16 17 18 19 21 23 24 24 25 23 21 19 16 15 13 13 12 11 11 11 10 9 8 7 6 4 3 4 4 4 5 5 6 7 8 9
7 6 5 7 8 11 8 7 4 7 6 10 12 15 17 20 21 22 23 23 23 24 23 23 22 20 17 15 15 14 12 10 9 10 8 7 5 4 1 1 3 4 5 5 5 6 7 7 8
4 2 2 6 11 10 8 4 6 2 8 14 19 23 25 24 24 23 23 23 24 24 24 23 23 22 20 18 17 16 14 12 10 8 7 5 4 2 0 2 3 4 5 5 6 6 7 7 8
3 1 4 5 7 10 14 13 5 3 15 24 26 25 24 23 23 23 23 24 24 23 22 22 22 22 21 19 16 14 13 10 8 7 6 5 4 2 1 3 5 6 7 7 7 7 7 8 8
4 2 2 5 7 8 11 10 6 7 18 26 27 25 25 24 24 24 25 25 24 23 22 21 22 23 22 19 16 14 13 10 9 7 6 4 3 2 2 3 5 6 7 8 8 9 9 9 9
1 1 2 7 11 11 14 14 4 12 25 28 28 27 27 25 26 28 29 27 24 21 20 20 21 20 21 18 12 11 11 9 7 5 5 5 3 2 2 2 3 5 6 7 8 8 8 8 7
Wind_Direction
104 227 251 253 228 221 184 159 214 199 225 304 318 285 306 331 317 16 76 38 326 153 169 176 189 191 195 199 202 206 210 211 218 222 233 236 225 229 231 227 227 226 224 227 230 226 221 212 203
351 283 263 259 240 201 164 173 214 238 355 342 199 228 216 132 65 77 151 2 295 180 177 187 177 193 197 201 204 210 209 218 230 228 222 243 245 246 236 216 224 235 242 239 238 230 225 213 201
185 302 284 258 243 224 128 98 16 321 299 253 225 232 274 170 158 178 5 331 264 194 190 187 181 197 202 204 206 210 212 222 227 227 217 236 260 252 227 218 222 236 249 241 235 228 225 215 202
242 248 262 263 256 292 307 349 334 312 202 224 261 233 210 187 256 349 339 311 239 200 196 190 195 204 208 211 212 214 218 224 224 233 212 216 250 269 245 232 238 258 259 249 239 233 229 218 206
235 270 260 258 272 290 291 305 303 290 264 211 268 274 249 166 204 327 343 318 244 214 205 197 196 211 212 215 217 219 223 224 227 239 204 210 236 254 253 218 212 282 266 252 250 249 243 227 211
194 256 258 262 272 288 287 286 294 280 274 251 257 272 262 149 174 39 9 6 307 256 227 210 192 216 214 214 217 220 223 221 224 241 237 230 241 253 249 220 221 247 277 268 259 257 252 239 220
213 240 266 279 286 283 322 336 303 309 290 289 275 272 260 174 154 132 57 48 47 43 221 224 213 209 210 217 219 221 223 221 219 229 246 241 245 260 266 253 234 234 270 293 282 271 260 249 234
216 242 252 259 270 271 354 350 325 312 317 347 261 270 299 100 153 173 164 60 57 57 78 228 225 229 219 212 207 217 218 218 215 217 228 225 232 252 266 269 246 247 274 306 300 280 264 256 250
213 239 251 250 256 267 327 331 336 293 281 267 249 272 314 130 190 215 232 237 242 235 285 282 247 232 230 227 206 208 211 214 218 217 210 219 236 237 230 244 259 283 288 299 307 303 277 258 243
216 242 256 258 266 295 310 312 314 297 285 282 274 260 241 231 227 235 246 257 265 284 314 309 290 254 237 231 224 219 214 209 220 228 219 229 236 241 249 244 248 265 270 270 267 279 280 249 238
230 250 281 271 273 285 294 301 296 290 292 297 301 304 271 241 240 241 244 254 275 300 312 318 309 272 237 220 230 226 218 216 222 230 232 235 240 242 244 248 236 242 242 252 244 246 245 241 238
244 257 262 277 282 283 291 296 292 280 282 305 306 300 287 257 245 238 238 240 236 241 277 331 335 273 211 211 210 221 219 217 221 220 228 231 236 245 248 252 255 253 245 244 252 250 243 245 242
247 272 272 272 283 283 285 282 286 277 293 311 307 298 289 274 253 237 235 229 228 225 211 87 77 105 135 171 195 215 223 227 227 229 230 235 242 246 243 246 245 249 249 246 245 240 235 236 236
277 272 284 291 288 268 277 285 272 283 328 326 330 325 314 292 260 237 226 227 227 224 215 204 155 131 136 153 174 192 219 230 244 239 239 241 247 249 246 245 239 242 243 247 246 244 243 234 210
278 284 285 257 314 330 298 285 265 332 334 324 326 328 326 309 278 253 242 238 235 229 229 229 221 198 171 161 168 192 213 233 241 244 243 237 239 242 239 239 234 232 233 235 235 241 243 237 209
261 264 272 128 358 11 321 306 327 346 338 341 353 2 4 360 330 287 265 255 248 239 236 232 230 229 219 204 197 203 219 225 231 239 241 236 232 233 235 239 240 233 231 223 216 209 203 205 207
250 287 308 325 32 349 331 305 330 357 9 31 38 38 35 31 20 357 304 268 253 245 240 234 229 229 224 217 214 214 215 220 224 231 239 234 227 224 231 242 248 237 236 233 218 207 204 199 199
318 314 310 312 328 328 311 306 347 31 53 50 42 36 33 31 24 15 357 314 274 256 247 241 233 230 219 212 211 205 209 212 215 215 216 214 208 211 223 230 236 235 232 235 221 206 207 204 204
311 298 300 305 328 318 308 313 6 60 49 45 38 33 29 25 22 19 12 353 309 270 253 246 242 233 225 218 216 211 207 201 197 193 197 203 201 201 210 211 203 212 209 196 189 186 184 178 199
294 295 304 315 324 315 307 307 95 76 57 48 37 29 24 18 15 13 10 6 343 298 268 253 247 241 233 230 227 222 204 197 181 167 160 165 168 168 190 208 204 202 196 189 183 183 178 172 192
303 305 321 315 320 288 295 232 146 99 58 42 32 25 23 19 12 7 5 4 357 333 289 262 252 248 239 230 219 203 195 195 194 191 182 174 173 165 173 193 201 202 203 197 191 194 196 186 182
317 334 310 307 309 294 311 262 180 139 48 29 22 20 20 16 11 7 5 3 357 345 317 283 269 258 245 233 226 218 217 214 213 205 195 192 196 190 179 190 205 207 206 200 199 204 207 197 196
313 311 297 293 281 274 229 238 201 81 25 15 15 16 17 13 8 6 6 1 359 355 340 311 291 275 258 247 241 236 233 228 216 209 211 212 203 202 194 197 208 220 218 212 211 211 213 214 210
314 303 280 229 243 249 196 251 248 57 21 6 11 14 12 8 4 1 360 357 359 359 353 337 314 294 277 265 253 242 234 223 215 217 220 215 202 194 189 197 209 220 225 224 226 226 226 228 230
352 340 323 307 281 289 151 275 260 109 29 15 9 6 3 360 357 355 355 355 355 353 350 345 333 314 296 280 266 252 241 232 225 223 223 220 209 199 193 220 237 239 239 242 242 241 237 237 238
355 357 349 316 303 303 291 270 136 123 34 20 7 356 353 353 351 348 348 348 346 343 343 343 337 325 308 287 271 262 250 241 234 223 219 214 209 197 188 266 276 276 273 265 253 251 246 245 242
355 39 321 279 282 283 276 261 150 203 0 1 357 354 352 348 343 340 338 336 335 333 334 336 334 327 316 298 277 266 259 249 239 218 199 175 156 146 178 314 301 293 288 282 275 262 257 258 255
26 318 285 274 294 295 296 291 276 66 0 355 349 344 340 336 334 332 330 330 329 328 329 331 330 325 313 297 278 267 261 250 227 201 175 154 143 124 34 330 309 298 290 285 280 276 270 266 262
320 264 277 276 272 283 294 308 73 22 352 344 338 336 333 330 329 327 326 326 324 325 328 329 329 326 318 298 268 246 240 229 212 188 155 138 120 86 45 331 307 299 295 288 279 273 274 271 269
306 29 321 299 290 274 281 294 73 348 342 337 331 330 327 324 322 323 324 323 322 325 327 327 329 329 326 313 276 227 209 202 200 171 133 118 112 94 61 336 313 311 306 296 284 278 274 271 272
Height
1522 1521 1521 1521 1518 1511 1508 1506 1505 1505 1504 1506 1506 1506 1504 1504 1506 1511 1510 1507 1508 1508 1507 1507 1507 1507 1507 1507 1508 1508 1509 1510 1511 1513 1513 1514 1515 1515 1515 1515 1516 1516 1517 1517 1517 1518 1518 1518 1519
1522 1522 1523 1520 1512 1510 1508 1504 1505 1505 1506 1507 1507 1506 1505 1506 1507 1508 1508 1507 1508 1508 1507 1507 1507 1507 1507 1507 1507 1507 1508 1509 1510 1512 1512 1513 1513 1514 1514 1514 1515 1515 1515 1516 1516 1516 1517 1517 1518
1522 1522 1523 1517 1511 1507 1506 1505 1506 1507 1507 1507 1506 1506 1506 1506 1507 1507 1507 1507 1507 1507 1507 1507 1507 1507 1506 1506 1506 1506 1507 1508 1509 1510 1511 1511 1512 1512 1513 1513 1513 1514 1514 1514 1515 1515 1516 1516 1517
1523 1523 1522 1516 1512 1509 1508 1506 1508 1507 1507 1507 1506 1505 1506 1506 1506 1506 1506 1506 1507 1507 1507 1507 1507 1506 1506 1506 1506 1506 1506 1506 1507 1508 1509 1509 1510 1510 1511 1511 1512 1512 1512 1513 1513 1514 1514 1515 1515
1523 1522 1519 1515 1514 1510 1509 1510 1509 1507 1506 1506 1506 1504 1505 1505 1504 1505 1505 1505 1506 1506 1506 1505 1505 1505 1505 1505 1505 1505 1505 1505 1506 1506 1507 1507 1508 1508 1509 1509 1509 1510 1510 1511 1511 1512 1512 1513 1514
1524 1521 1518 1516 1512 1511 1509 1510 1510 1507 1506 1507 1506 1504 1504 1504 1503 1504 1504 1504 1504 1504 1504 1504 1503 1504 1504 1504 1504 1503 1503 1503 1503 1504 1504 1504 1505 1506 1506 1507 1507 1508 1509 1509 1509 1510 1510 1511 1512
1524 1520 1518 1517 1515 1511 1509 1510 1509 1507 1506 1506 1506 1504 1503 1504 1502 1503 1503 1503 1503 1503 1502 1502 1502 1502 1502 1502 1502 1502 1501 1501 1501 1501 1501 1502 1502 1503 1504 1504 1505 1505 1506 1507 1507 1507 1508 1509 1510
1522 1521 1519 1517 1516 1512 1511 1510 1510 1509 1507 1507 1506 1504 1502 1504 1502 1502 1501 1501 1501 1501 1500 1500 1499 1499 1499 1499 1499 1499 1499 1499 1499 1499 1499 1499 1499 1500 1500 1501 1502 1502 1502 1503 1504 1505 1505 1506 1507
1523 1522 1517 1515 1515 1511 1511 1510 1509 1509 1508 1506 1505 1504 1503 1501 1500 1500 1500 1499 1499 1498 1498 1497 1497 1496 1496 1496 1496 1496 1496 1496 1496 1496 1495 1496 1496 1498 1498 1498 1497 1498 1498 1499 1500 1501 1502 1503 1504
1522 1519 1514 1513 1513 1512 1511 1511 1510 1507 1505 1503 1502 1501 1499 1499 1498 1498 1498 1498 1497 1496 1495 1494 1493 1493 1492 1492 1493 1493 1494 1494 1494 1495 1494 1494 1494 1494 1494 1493 1493 1494 1495 1495 1496 1497 1498 1500 1501
1520 1516 1514 1515 1515 1514 1512 1510 1509 1506 1502 1500 1499 1499 1498 1496 1495 1495 1495 1495 1494 1494 1493 1492 1491 1490 1490 1489 1490 1491 1491 1491 1492 1492 1491 1491 1491 1490 1490 1490 1489 1490 1490 1491 1492 1493 1496 1497 1498
1519 1516 1516 1514 1514 1513 1511 1509 1506 1505 1501 1500 1498 1496 1495 1494 1494 1493 1493 1493 1492 1492 1491 1491 1490 1489 1488 1487 1487 1488 1488 1489 1489 1488 1488 1489 1488 1487 1487 1486 1486 1486 1486 1487 1488 1489 1491 1493 1494
1518 1515 1515 1514 1513 1512 1510 1507 1505 1501 1499 1497 1495 1494 1493 1492 1491 1491 1491 1491 1491 1490 1490 1489 1489 1488 1487 1486 1485 1485 1486 1486 1486 1485 1485 1485 1485 1484 1484 1483 1483 1483 1483 1483 1483 1484 1486 1488 1490
1516 1515 1513 1512 1511 1509 1508 1504 1503 1497 1497 1496 1495 1494 1491 1489 1488 1488 1488 1489 1490 1490 1489 1488 1488 1487 1486 1485 1485 1484 1484 1483 1483 1482 1482 1481 1482 1481 1480 1480 1479 1479 1479 1480 1480 1482 1483 1484 1484
1516 1514 1508 1508 1508 1508 1508 1500 1498 1497 1497 1495 1493 1491 1489 1487 1486 1487 1488 1488 1489 1489 1488 1487 1487 1486 1485 1484 1484 1483 1482 1482 1481 1480 1479 1478 1478 1478 1477 1477 1476 1476 1476 1476 1476 1477 1478 1479 1480
1513 1510 1506 1506 1508 1508 1509 1500 1496 1498 1496 1495 1492 1490 1488 1487 1486 1486 1487 1487 1488 1487 1486 1486 1485 1485 1484 1483 1482 1481 1480 1479 1478 1476 1475 1474 1474 1473 1474 1474 1473 1472 1472 1472 1471 1472 1473 1474 1475
1509 1507 1507 1506 1507 1508 1507 1501 1497 1499 1496 1496 1494 1492 1491 1489 1487 1485 1485 1485 1485 1485 1485 1484 1484 1483 1482 1481 1479 1478 1477 1475 1474 1473 1472 1471 1470 1470 1470 1470 1469 1469 1468 1468 1467 1467 1468 1469 1470
1511 1510 1510 1509 1506 1508 1506 1501 1500 1503 1500 1499 1498 1496 1494 1491 1490 1487 1485 1484 1484 1483 1482 1482 1481 1481 1480 1478 1477 1475 1473 1472 1470 1469 1468 1467 1467 1467 1467 1467 1466 1465 1465 1464 1464 1463 1464 1464 1465
1517 1515 1512 1508 1508 1510 1504 1502 1503 1507 1505 1504 1503 1501 1498 1496 1493 1489 1485 1483 1481 1480 1479 1479 1479 1478 1477 1476 1474 1472 1470 1468 1467 1466 1465 1465 1464 1464 1465 1465 1464 1463 1462 1462 1461 1461 1461 1461 1462
1516 1513 1508 1507 1509 1509 1504 1503 1504 1509 1509 1509 1508 1505 1501 1496 1491 1489 1487 1484 1480 1478 1477 1476 1476 1475 1474 1472 1471 1469 1467 1465 1464 1463 1463 1462 1462 1461 1462 1463 1462 1461 1461 1460 1460 1459 1459 1459 1459
1514 1514 1512 1513 1509 1507 1508 1496 1502 1507 1510 1510 1508 1505 1501 1497 1494 1491 1486 1482 1478 1475 1473 1472 1473 1472 1471 1470 1468 1465 1463 1462 1461 1460 1460 1459 1459 1459 1459 1460 1460 1459 1459 1459 1458 1458 1458 1458 1457
1515 1516 1516 1513 1511 1502 1508 1496 1490 1501 1507 1508 1507 1504 1501 1499 1497 1493 1487 1481 1478 1475 1471 1469 1469 1468 1467 1466 1464 1463 1460 1459 1459 1458 1457 1457 1456 1456 1456 1456 1457 1457 1457 1456 1456 1456 1456 1456 1456
1519 1517 1515 1512 1509 1505 1504 1499 1485 1499 1507 1510 1509 1506 1503 1502 1500 1495 1490 1486 1481 1475 1470 1467 1465 1465 1464 1462 1461 1459 1457 1456 1455 1455 1454 1454 1453 1453 1453 1453 1454 1454 1454 1453 1453 1454 1454 1454 1455
1523 1514 1507 1513 1507 1501 1499 1497 1484 1509 1516 1513 1511 1508 1507 1505 1502 1498 1493 1488 1481 1475 1470 1466 1463 1461 1461 1459 1458 1456 1454 1453 1451 1451 1451 1451 1450 1450 1450 1450 1451 1451 1451 1451 1451 1451 1452 1452 1452
1523 1517 1508 1501 1497 1494 1503 1499 1493 1518 1518 1516 1515 1513 1510 1507 1503 1498 1493 1487 1480 1475 1470 1466 1461 1458 1457 1456 1455 1454 1452 1450 1448 1448 1448 1447 1447 1447 1447 1447 1448 1448 1448 1448 1448 1448 1449 1449 1450
1530 1527 1528 1525 1510 1497 1495 1496 1499 1518 1519 1518 1517 1515 1511 1506 1501 1497 1492 1486 1481 1476 1471 1465 1460 1456 1453 1452 1451 1450 1449 1448 1446 1444 1443 1443 1443 1443 1443 1444 1444 1445 1444 1444 1444 1445 1445 1445 1445
1530 1531 1533 1530 1516 1512 1492 1494 1510 1518 1515 1514 1511 1507 1504 1502 1499 1495 1490 1485 1480 1474 1469 1464 1458 1452 1448 1447 1446 1445 1445 1444 1442 1441 1439 1437 1437 1438 1439 1440 1440 1440 1440 1440 1440 1440 1440 1440 1440
1535 1534 1531 1527 1520 1507 1489 1486 1489 1509 1508 1507 1508 1507 1506 1503 1498 1493 1487 1481 1475 1469 1464 1458 1453 1447 1441 1439 1438 1437 1437 1438 1437 1436 1434 1433 1432 1433 1434 1435 1435 1435 1435 1434 1434 1434 1434 1434 1434
1537 1536 1534 1530 1526 1521 1506 1492 1506 1508 1509 1510 1510 1508 1504 1500 1494 1489 1483 1476 1470 1464 1458 1452 1446 1439 1433 1428 1426 1427 1428 1429 1429 1429 1428 1428 1428 1429 1429 1430 1430 1429 1428 1427 1427 1427 1427 1427 1427
1540 1539 1537 1536 1527 1524 1518 1505 1506 1509 1510 1511 1509 1505 1500 1495 1490 1484 1478 1471 1465 1459 1453 1447 1440 1432 1425 1419 1417 1415 1417 1419 1421 1421 1421 1423 1424 1424 1423 1423 1423 1422 1421 1420 1419 1419 1419 1420 1420